Miscellaneous Local Product
Issued by NWS Hastings, NE

Home | Current Version | Previous Version | Text Only | Print | Product List | Glossary Off
Versions: 1 2 3 4 5 6 7 8 9 10 11 12 13 14 15 16 17 18 19 20 21 22 23 24 25 26 27 28 29 30 31 32 33 34 35 36 37 38 39 40 41 42 43 44 45 46 47 48 49 50

000
AXUS43 KGID 182102
MISGRI

GID CWA HOURLY WEATHER ROUNDUP
NATIONAL WEATHER SERVICE HASTINGS NE
300 PM CST SAT FEB 18 2017

NOTE: "FAIR" INDICATES FEW OR NO CLOUDS BELOW 12,000 FEET WITH NO
SIGNIFICANT WEATHER AND/OR OBSTRUCTIONS TO VISIBILITY.

...SOUTH CENTRAL NEBRASKA...

CITY           SKY/WX    TMP DP  RH WIND       PRES   REMARKS
GRAND ISLAND   SUNNY     64  32  30 SE9       29.76F
HASTINGS       SUNNY     66  31  27 SE15G21   29.75F
KEARNEY        SUNNY     66  32  28 SE12      29.75F
ORD            SUNNY     62  26  25 SE10      29.73F
YORK           SUNNY     64  30  27 SE10      29.76F
AURORA         SUNNY     65  32  29 E12       29.76F
LEXINGTON      SUNNY     64  32  30 SE10G16   29.73F
HOLDREGE       SUNNY     65  31  27 SE12      29.74F
HEBRON         SUNNY     68  32  26 SE10G16   29.75S

...NEBRASKA PANHANDLE...

CITY           SKY/WX    TMP DP  RH WIND       PRES   REMARKS
CHADRON        SUNNY     67  29  24 SW15      29.62F
ALLIANCE       CLOUDY    62  26  25 S17G23    29.67F
SCOTTSBLUFF    SUNNY     66  23  19 SE14      29.65F
SIDNEY         CLOUDY    62  27  26 S13       29.71F

...WESTERN AND NORTH CENTRAL NEBRASKA...

CITY           SKY/WX    TMP DP  RH WIND       PRES   REMARKS
VALENTINE        N/A     61  25  25 S18G25    29.70F
AINSWORTH      SUNNY     63  29  28 S16G22    29.72S
ONEILL         MOSUNNY   66  29  25 SE13G20   29.74S
BROKEN BOW     SUNNY     61  29  29 SE13      29.73F
IMPERIAL       SUNNY     61  28  28 S14       29.74S
NORTH PLATTE   SUNNY     65  30  27 S10       29.74S
MCCOOK         PTSUNNY   64  34  32 SE10      29.74R

...EASTERN NEBRASKA...

CITY           SKY/WX    TMP DP  RH WIND       PRES   REMARKS
NORFOLK        SUNNY     62  32  32 SE7       29.76F
SO SIOUX CITY  SUNNY     64  40  41 S5        29.78F
TEKAMAH        SUNNY     62  35  36 VRB3      29.77F
COLUMBUS       SUNNY     63  36  36 SE9       29.77F
ALBION         PTSUNNY   62  32  31 SE8       29.77S
OMAHA EPPLEY   MOSUNNY   65  34  31 CALM      29.77F
OFFUTT AFB     SUNNY     68  33  27 E6        29.76F
MILLARD        SUNNY     67  34  29 SE6       29.77F
LINCOLN        SUNNY     67  30  25 SE10      29.78F
NEBRASKA CITY  SUNNY     65  20  17 E7        29.78F
BEATRICE       SUNNY     68  33  27 E7        29.76F
FALLS CITY     SUNNY     69  33  26 NE7       29.76F

...NORTHERN KANSAS...

CITY           SKY/WX    TMP DP  RH WIND       PRES   REMARKS
GOODLAND       CLOUDY    62  27  26 S12       29.74F
HILL CITY      SUNNY     65  39  38 SE6       29.74F
NORTON         CLEAR     64  30  27 E9        29.73S
PHILLIPSBURG   SUNNY     68  37  32 E12       29.73F
SMITH CENTER   SUNNY     66  37  34 SE10      29.74S
HAYS           SUNNY     71  36  27 S10       29.72F
RUSSELL        SUNNY     73  37  27 S12G20    29.71F
CONCORDIA      SUNNY     69  43  38 SE8G16    29.73F
SALINA         SUNNY     75  41  29 SE10G18   29.74F
TOPEKA         SUNNY     71  43  36 CALM      29.76F



USA.gov is the U.S. government's official web portal to all federal, state and local government web resources and services.